Regional Weather Roundup
Issued by NWS Wakefield, VA

Home | Current Version | Previous Version | Graphics & Text | Print | Product List | Glossary On
Versions: 1 2 3 4 5 6 7 8 9 10 11 12 13 14 15 16 17 18 19 20 21 22 23 24 25 26 27 28 29 30 31 32 33 34 35 36 37 38 39 40 41 42 43 44 45 46 47 48 49 50
466
ASUS41 KAKQ 092215
RWRAKQ

REGIONAL WEATHER ROUNDUP
NATIONAL WEATHER SERVICE WAKEFIELD VA
500 PM EST TUE FEB 09 2016

Note: "fair" indicates few or no clouds below 12,000 feet with no
significant weather and/or obstructions to visibility. * = Denotes
station may not report precipitation (e.g., rain,snow,etc.),
thunder or fog.

VAZ042-051-052>054-056-092300-
NORTHERN VIRGINIA

CITY           SKY/WX    TMP DP  RH WIND       PRES   REMARKS
WASH NATIONAL  MOCLDY    38  28  67 NW10      29.60R
DULLES         MOCLDY    36  25  64 NW13      29.60R
FORT BELVOIR   CLOUDY    38  31  76 NW10      29.60R
QUANTICO       CLOUDY    39  33  79 N7        29.61R
FREDERICKSBRG* MOCLDY    37  35  90 N5        29.59R
STAFFORD*      FAIR      35  32  88 N5        29.64R
WARRENTON      CLOUDY    36  35  97 CALM      29.58R
CULPEPER*      CLOUDY    35  33  93 CALM      29.60R
MANASSAS*      MOCLDY    37  30  75 NW10G16   29.59R
LEESBURG*      MOCLDY    36  30  80 N7        29.60R
WINCHESTER     FAIR      36  23  60 W13       29.59R
FRONT ROYAL*   MOCLDY    36  19  51 NW8       29.57R
LURAY*         CLOUDY    36  19  51 NW8       29.57R
$$

VAZ048-049-060>072-079>083-092300-
CENTRAL AND SOUTH CENTRAL VIRGINIA

CITY           SKY/WX    TMP DP  RH WIND       PRES   REMARKS
RICHMOND       CLOUDY    41  31  67 W12       29.59R
CHESTERFIELD*  FAIR     N/A N/A N/A W7        29.61R
PETERSBURG*    CLOUDY    43  14  31 SW12      29.62R
HANOVER        CLOUDY    39  33  79 S5        29.61R
TAPPAHANNOCK*  CLOUDY    38  35  88 CALM      29.60S
QUINTON*       CLOUDY    40  32  71 W6        29.59R
CHARLOTTSVILLE MOCLDY    40  18  41 CALM      29.58R
GORDONSVILLE*  CLOUDY    40  22  48 SW7       29.58R
ORANGE*        CLOUDY    41  30  65 CALM      29.60R
LOUISA*        CLOUDY    41  27  56 W7        29.57R
BUMPASS*       CLOUDY    39  29  69 W3        29.58R
FARMVILLE*     MOCLDY    40  16  37 W10G17    29.62R
CREWE*         CLOUDY    39  20  47 NW8G17    29.62R
FORT PICKETT*  CLOUDY    40  16  38 W14       29.62R
CHASE CITY*    CLOUDY    37  15  42 W8G17     29.66R
CLARKSVILLE*   CLOUDY    37  19  48 W12       29.66R
SOUTH HILL*    CLOUDY    38  20  48 W9G16     29.70R
LAWRENCEVILLE* CLOUDY    40  21  47 W6        29.63R
EMPORIA*       CLOUDY    41  23  48 SW12G17   29.66R
$$

VAZ088>098-092300-
SOUTHEAST VIRGINIA

CITY           SKY/WX    TMP DP  RH WIND       PRES   REMARKS
NORFOLK        MOCLDY    45  27  49 W8G18     29.59R
VIRGINIA BEACH MOCLDY    48  28  46 W13       29.59R
NORFOLK NAVAL  MOCLDY    45  28  51 W12G21    29.61R
WEST POINT*    MOCLDY    39  33  77 N5        29.61R
SALUDA*        CLOUDY    38  35  89 NW6       29.60R
NEWPORT NEWS   CLOUDY    43  30  60 W6        29.60R
LANGLEY AFB    MOCLDY    44  30  57 SW12      29.58R
FORT EUSTIS    MIX PCPN  43  27  52 W5        29.58R
WILLIAMSBURG*  MOCLDY    46  34  61 CALM      29.60R
HR EXEC AP*    CLOUDY    45  28  53 W7        29.62R
FRANKLIN*      CLOUDY    43  26  49 W14G23    29.62R
US460-WAKEFLD  MOCLDY    44  26  49 W10       29.61R
$$

VAZ020-022-025-037-045-092300-
WEST CENTRAL AND SOUTHWEST VIRGINIA

CITY           SKY/WX    TMP DP  RH WIND       PRES   REMARKS
STAUNTON*      CLOUDY    39  17  42 W10       29.59R
WAYNESBORO*    CLOUDY    33  14  44 SW14      29.58R WCI  24
HOT SPRINGS VA LGT SNOW  18  12  78 W21G31    29.48R WCI   1
LYNCHBURG      FAIR      32  14  47 W12G20    29.66R WCI  23
DANVILLE       CLOUDY    36  15  42 W10       29.70R
SOUTH BOSTON*  CLOUDY    37  15  40 W14       29.68R
MARTINSVILLE   CLOUDY    30  12  46 NW17      29.72R WCI  18
ROANOKE        CLOUDY    30  14  51 NW13      29.70R WCI  20
BLACKSBURG     CLOUDY    25  16  69 NW16G22   29.69R WCI  12
DUBLIN*        CLOUDY    25  15  66 NW13      29.69R WCI  13
MARION*        LGT SNOW  21  15  76 W12       29.70R WCI   9
HILLSVILLE*    CLOUDY    20  13  73 W13G23    29.62R WCI   8
RICHLANDS*     FLURRIES  19  10  68 NW10G17   29.69R WCI   7
WISE*          LGT SNOW  19  10  68 W8        29.73R
ABINGDON*      CLOUDY    24  11  58 NW10G18   29.75R WCI  13
$$

MDZ021>025-VAZ099-100-092300-
SOUTHERN MARYLAND AND THE DELMARVA PENINSULA

CITY           SKY/WX    TMP DP  RH WIND       PRES   REMARKS
PATUXENT RIVER MOCLDY    39  32  76 NW9       29.59R
BAY BRIDGE APT   N/A     37  32  81 CALM      29.59R
LEONARDTOWN    MOCLDY    36  34  93 W5        29.60R
DOVER          LGT RAIN  37  37 100 E6        29.55R
GEORGETOWN     CLOUDY    38  36  92 E8        29.57R
EASTON         CLOUDY    37  37 100 NW5       29.61R
CAMBRIDGE      MOCLDY    37  32  81 NW9G16    29.58R
SALISBURY      CLOUDY    39  35  86 W8        29.56R
OCEAN CITY     CLOUDY    37  36  96 CALM      29.57R
WALLOPS ISLAND CLOUDY    40  36  86 W7        29.58R
ACCOMACK*      CLOUDY    37  34  87 NW8       29.59R
$$

NCZ012>017-030>032-092300-
NORTH CENTRAL AND EASTERN NORTH CAROLINA

CITY           SKY/WX    TMP DP  RH WIND       PRES   REMARKS
ROANOKE RAPIDS MOCLDY    41  28  60 W6        29.65R
RALEIGH        CLOUDY    39  21  48 W9        29.69R
ELIZABETH CITY CLOUDY    42  33  70 SW13      29.63R
AHOSKIE*       CLOUDY    42  27  56 CALM      29.64R
EDENTON*       LGT RAIN  42  35  78 W10G26    29.66R
CURRITUCK*     CLOUDY    46  31  58 SW6       29.62R
KILL DEVIL HLS CLOUDY    44  31  60 W10G18    29.63R
MANTEO         CLOUDY    45  32  61 NW12      29.64R
CAPE HATTERAS  CLOUDY    46  35  65 W9G16     29.65R
TARBORO*       CLOUDY    43  28  55 W14G20    29.68R
GOLDSBORO      CLOUDY    43  21  42 W15G25    29.67R
WASHINGTON     CLOUDY    44  26  48 W15G22    29.66R
GREENVILLE     CLOUDY    43  27  52 W12G18    29.70R
NEW BERN       MOCLDY    44  24  45 W10G18    29.69R
WILMINGTON     CLOUDY    45  25  45 W18G25    29.73R
$$

VAZ048-092300-
ELSEWHERE

CITY           SKY/WX    TMP DP  RH WIND       PRES   REMARKS
HARRISBURG PA  LGT SNOW  32  29  88 CALM      29.57R VSB 3/4
BALTIMORE      MOCLDY    35  29  78 W14       29.58R
ANNAPOLIS      MOCLDY    38  31  76 NW8       29.58R
ANDREWS AFB    FAIR      37  29  73 NW8       29.58R
PHILADELPHIA   LGT SNOW  34  30  85 NE8       29.58R VSB 3/4
HENDERSON NC   CLOUDY    38  17  41 W5        29.66R
GREENSBORO     CLOUDY    34  10  37 W17G24    29.70R WCI  23
ROCKY MOUNT    CLOUDY    41  25  53 W8G20     29.68R
$$

VAZ100-092300-
MARINE

STATION/POSITION TIME  TEMP    WIND        PRES    WAVE   SWELL
                       AIR SEA DIR/SP/G            HT/PER HT/PER
                 (UTC) (F)     (DEG/KT/KT) (MB)    (FT/S) (FT/S)
BRANDYWINE LGT   2100   39     110/ 12/ 13 1000.5R
CAPE MAY NJ      2100   39 43   80/  7/ 12 1000.2R
LEWES DE         2100   39 41  110/  5/  6 1000.6R
15NM E FENWICK I 2150   42 43              1000.5R   7/13
OCEAN-CITY-INLET 2100   41 42  220/  6/ 11  999.9R
WACHAPREAGUE VA  2100   41 44  270/  5/ 15 1001.2R
THOMAS POINT MD  2200   38 39  310/  9/ 10 1002.5R
GOOSES REEF MD   2200   40 40  330/ 10/ 14 1002.8R   1/ 3
COVE POINT MD    2100   38     340/ 14/ 18 1001.6R
SOLOMONS ISLAND  2100   40 41  290/  6/ 10   N/A
BISHOPS HEAD MD  2100   39 41  310/ 12/ 15 1000.1R
PINEY POINT MD   2100          320/ 10/ 11   N/A
POTOMAC MD       2200   39 41  310/ 16/ 17 1001.1R   1/ 3
CAMBRIDGE MD     2100   38 40  300/ 12/ 18 1000.1R
LEWISETTA VA     2100   40 41  330/ 10/ 12 1001.0R
RAPPAHANNOCK LGT 2100          280/ 11/ 12 1001.3R
STINGRAY PT      2200   38 42  250/ 14/ 19 1002.4R
YORK RVR RNG VA  2100   44     280/  9/  9 1000.4R
YORKTOWN VA      2100   45 43  260/  7/  9 1000.9R
JAMESTOWN VA     2200   43 44  280/ 14/ 19   N/A
DOMINION TERM VA 2100   43     300/ 20/ 22 1001.1R
KIPTOPEKE VA     2100      44  290/ 19/ 22   N/A
CHES BAY BRIDGE  2100   44 44  260/ 18/ 21 1000.8R
CAPE HENRY VA    2100   45     280/ 11/ 15   N/A
CHESAPEAKE LGHT  2100   45     280/ 10/ 11 1002.1R
WILLOUBY STN VA  2100   45     260/ 11/ 12   N/A
CAPE HENRY BUOY  2128      45                N/A     5/14   3/14
1ST LANDING BUOY 2200      44                N/A     3/ 7
CAPE CHARLES BUO 2126      44                N/A     5/15   5/15
OFFSHORE WE BUOY 2121      46                N/A     6/13   5/13
64NM E OF VA BCH 2150   47 50  240/ 16/ 21 1001.7R  10/15   8/15
DUCK PIER NC     2100   45     260/ 17/ 20 1002.0R
44100 DUCK FRF   2124      47                N/A     8/14   7/14
44056 DUCK FRF   2111      45                N/A     7/14   7/14
OREGON INLET NC  2100   46 45  240/ 15/ 19 1002.6R
HATTERAS NC      2100   45 52  270/ 11/ 14 1003.2R
DIAMOND SHLS NC  2150   50 74  270/ 23/ 31 1003.3F  10/15   8/15C1F1C2F2C3F3C4F4C5F5C6F6C7F7C8M1C9!



USA.gov is the U.S. government's official web portal to all federal, state and local government web resources and services.